OBJECT G

Satellite information

Favourite Embed

Satellite Type and Status

UNKNOWNDECAYED

Key statistics

Satellite OBJECT G at a glance.

Uptime

697

Days in orbit

Revolutions

≈ 15.3

Per day

Orbit

SSO

Sun Synchronous Orbit

Inclination

97.6

Latest

Satellite identification and parameters

Extended collection of information and parameters for OBJECT G.

Object identification

Identified? True

Debris? False

Object name: OBJECT G

International designator: 2022-167G

Object number (NORAD): 54688

Object ID (CCSDS): 54688

Country: PEOPLES REPUBLIC OF CHINA (PRC)

Current information (Y/N): Y

RCS size: MEDIUM

Orbital parameters

Decay date: Nov. 5, 2024

Period: 94.241 minutes

Inclination: 97.5794 deg

SMA: 6859.957 km

Apoapsis: 489.482 km

Periapsis: 474.161 km

RAAN: 186.9403 deg

Eccentricy: 0.0011167

Argument of periapsis: 240.3682 deg

Mean anomaly: 119.6445 deg

Mean motion: 15.27990589 rev/day

Mean motion (dot): 0.00047651 rev/day2

B* drag term: 0.0017355 1/REarth

Two-line elements (TLE)

Creation date: Feb. 12, 2024, 3:07 a.m.

Reference frame: TEME

Reference center: EARTH

Epoch: Feb. 11, 2024, 9:35 p.m. UTC

TLE line 0: 0 OBJECT G

TLE line 1: 1 54688U 22167G 24042.89971421 .00047651 00000-0 17355-2 0 9998

TLE line 2: 2 54688 97.5794 186.9403 0011167 240.3682 119.6445 15.27990589 65147

Live tracking on map

Satellite OBJECT G has decayed and is no longer in orbit. No tracking available.

In-orbit conjunctions

Satellite OBJECT G has decayed and is no longer in orbit. No conjunctions available.

Associated space launch

First flight of the new solid fuel powered rocket developed by CAST. Payload consists of 14 satellites: * Jilin-1 HR-03D 44-50 * Jilin-1 PT-01A 01 * Tianqi-7 * HEAD-2H * CAS-5A * Golden Bauhinia 1-05 & 06 * Huoju-1

OBJECT G was lifted into orbit during the mission ‘Smart Dragon 3 | Maiden Flight’, on board a Smart Dragon 3 space rocket.

The launch took place on Dec. 9, 2022, 6:35 a.m. from Tai Rui mobile launch platform.

For more information about the launch, click the button.

Launch to space Smart Dragon 3 | Maiden Flight
Smart Dragon 3 | Maiden Flight

Agency: N/A

Status: Launch Successful

Launch date: Dec. 9, 2022, 6:35 a.m. UTC

Rocket: Smart Dragon 3

Launch pad: Tai Rui mobile launch platform

Location: Sea Launch

...

Latest news about this satellite

News about space launch
China launches 14 satellites with new solid rocket from mobile sea platform

China launched its new Jielong-3 rocket from a mobile sea platform in the Yellow Sea Friday, successfully sending 14 satellites into orbit.


Newsletter sign-up

Weekly statistics, charts and insights to help you stay on top of the space industry.